Time,TemperatureF,DewpointF,PressureIn,WindDirection,WindDirectionDegrees,WindSpeedMPH,WindSpeedGustMPH,Humidity,HourlyPrecipIn,Conditions,Clouds,dailyrainin,SoftwareType,DateUTC
2013-11-03 00:02:00,-999.0,-99.9,29.88,NNW,346,4.0,12.0,-999,-99.99,,,-99.99,,2013-11-03 04:02:00,
2013-11-03 00:13:00,38.0,37.0,29.88,NNW,346,4.0,12.0,95,0.00,,,0.06,,2013-11-03 04:13:00,
2013-11-03 00:23:00,38.0,36.0,29.88,NNE,31,8.0,16.0,93,0.00,,,0.06,,2013-11-03 04:23:00,
2013-11-03 00:44:00,38.0,35.0,29.88,NNE,13,13.0,18.0,89,0.00,,,0.06,,2013-11-03 04:44:00,
2013-11-03 00:52:00,38.0,35.0,29.89,ENE,67,7.0,20.0,90,0.00,,,0.06,,2013-11-03 04:52:00,
2013-11-03 01:13:00,38.0,36.0,29.89,NNW,338,5.0,16.0,91,0.00,,,0.06,,2013-11-03 05:13:00,
2013-11-03 01:23:00,37.0,35.0,29.90,NW,314,6.0,11.0,92,0.00,,,0.06,,2013-11-03 05:23:00,
2013-11-03 01:43:00,37.0,35.0,29.91,WNW,289,5.0,14.0,92,0.00,,,0.06,,2013-11-03 05:43:00,
2013-11-03 01:53:00,37.0,35.0,29.92,NNE,28,5.0,14.0,92,0.00,,,0.06,,2013-11-03 05:53:00,
2013-11-03 01:12:00,37.0,34.0,29.93,NNW,340,6.0,16.0,90,0.00,,,0.06,,2013-11-03 06:12:00,
2013-11-03 01:23:00,37.0,35.0,29.93,NNW,335,5.0,12.0,91,0.00,,,0.06,,2013-11-03 06:23:00,
2013-11-03 01:43:00,36.0,34.0,29.93,NNW,343,5.0,10.0,91,0.00,,,0.06,,2013-11-03 06:43:00,
2013-11-03 01:53:00,36.0,34.0,29.94,NNW,338,9.0,18.0,91,0.00,,,0.06,,2013-11-03 06:53:00,
2013-11-03 02:11:00,36.0,34.0,29.95,NW,307,5.0,16.0,92,0.00,,,0.06,,2013-11-03 07:11:00,
2013-11-03 02:22:00,36.0,33.0,29.96,North,9,7.0,17.0,90,0.00,,,0.06,,2013-11-03 07:22:00,
2013-11-03 02:42:00,36.0,34.0,29.97,North,5,3.0,11.0,92,0.00,,,0.06,,2013-11-03 07:42:00,
2013-11-03 02:52:00,36.0,33.0,29.97,NNW,340,6.0,14.0,90,0.00,,,0.06,,2013-11-03 07:52:00,
2013-11-03 03:11:00,35.0,33.0,29.98,North,352,6.0,11.0,92,0.00,,,0.06,,2013-11-03 08:11:00,
2013-11-03 03:21:00,35.0,33.0,29.99,North,352,6.0,12.0,91,0.00,,,0.06,,2013-11-03 08:21:00,
2013-11-03 03:42:00,35.0,32.0,30.00,NNE,29,5.0,11.0,89,0.00,,,0.06,,2013-11-03 08:42:00,
2013-11-03 03:52:00,35.0,33.0,30.01,NNE,20,4.0,7.0,91,0.00,,,0.06,,2013-11-03 08:52:00,
2013-11-03 04:02:00,35.0,33.0,30.01,NNE,20,4.0,7.0,91,0.00,,,0.06,,2013-11-03 09:02:00,
2013-11-03 04:12:00,35.0,33.0,30.01,NNE,20,4.0,7.0,91,0.00,,,0.06,,2013-11-03 09:12:00,
2013-11-03 04:22:00,34.0,31.0,30.02,NNW,344,4.0,11.0,90,0.00,,,0.06,,2013-11-03 09:22:00,
2013-11-03 04:42:00,34.0,32.0,30.02,NW,317,5.0,11.0,91,0.00,,,0.06,,2013-11-03 09:42:00,
2013-11-03 04:53:00,34.0,31.0,30.03,NNW,339,6.0,12.0,90,0.00,,,0.06,,2013-11-03 09:53:00,
2013-11-03 05:13:00,34.0,31.0,30.05,NW,319,6.0,12.0,88,0.00,,,0.06,,2013-11-03 10:13:00,
2013-11-03 05:23:00,34.0,31.0,30.05,NNW,327,3.0,14.0,89,0.00,,,0.06,,2013-11-03 10:23:00,
2013-11-03 05:42:00,34.0,31.0,30.06,North,5,7.0,13.0,88,0.00,,,0.06,,2013-11-03 10:42:00,
2013-11-03 05:52:00,34.0,31.0,30.07,NNE,20,5.0,13.0,87,0.00,,,0.06,,2013-11-03 10:52:00,
2013-11-03 06:12:00,34.0,31.0,30.08,NNW,335,4.0,10.0,87,0.00,,,0.06,,2013-11-03 11:12:00,
2013-11-03 06:22:00,34.0,31.0,30.09,NW,319,3.0,11.0,87,0.00,,,0.06,,2013-11-03 11:22:00,
2013-11-03 06:43:00,33.0,30.0,30.09,NW,304,6.0,10.0,87,0.00,,,0.06,,2013-11-03 11:43:00,
2013-11-03 06:52:00,33.0,29.0,30.10,North,10,5.0,11.0,86,0.00,,,0.06,,2013-11-03 11:52:00,
2013-11-03 07:12:00,33.0,30.0,30.11,NE,46,5.0,11.0,87,0.00,,,0.06,,2013-11-03 12:12:00,
2013-11-03 07:22:00,33.0,29.0,30.12,NNW,332,7.0,11.0,85,0.00,,,0.06,,2013-11-03 12:22:00,
2013-11-03 07:42:00,33.0,28.0,30.13,North,5,5.0,15.0,83,0.00,,,0.06,,2013-11-03 12:42:00,
2013-11-03 07:52:00,33.0,28.0,30.14,NNW,335,9.0,16.0,80,0.00,,,0.06,,2013-11-03 12:52:00,
2013-11-03 08:12:00,33.0,28.0,30.16,NW,317,7.0,16.0,80,0.00,,,0.06,,2013-11-03 13:12:00,
2013-11-03 08:22:00,33.0,28.0,30.17,NNW,342,6.0,17.0,80,0.00,,,0.06,,2013-11-03 13:22:00,
2013-11-03 08:42:00,33.0,28.0,30.18,WNW,301,6.0,11.0,80,0.00,,,0.06,,2013-11-03 13:42:00,
2013-11-03 08:52:00,33.0,27.0,30.19,NNW,347,5.0,11.0,79,0.00,,,0.06,,2013-11-03 13:52:00,
2013-11-03 09:12:00,33.0,27.0,30.20,NNE,14,9.0,20.0,78,0.00,,,0.06,,2013-11-03 14:12:00,
2013-11-03 09:22:00,33.0,27.0,30.21,North,350,7.0,18.0,78,0.00,,,0.06,,2013-11-03 14:22:00,
2013-11-03 09:42:00,33.0,26.0,30.21,NNW,342,8.0,17.0,76,0.00,,,0.06,,2013-11-03 14:42:00,
2013-11-03 09:52:00,33.0,26.0,30.22,NNW,336,8.0,16.0,75,0.00,,,0.06,,2013-11-03 14:52:00,
2013-11-03 10:11:00,33.0,26.0,30.23,North,351,10.0,16.0,75,0.00,,,0.06,,2013-11-03 15:11:00,
2013-11-03 10:22:00,33.0,26.0,30.24,NW,314,7.0,14.0,75,0.00,,,0.06,,2013-11-03 15:22:00,
2013-11-03 10:43:00,33.0,25.0,30.24,NNE,30,8.0,14.0,73,0.00,,,0.06,,2013-11-03 15:43:00,
2013-11-03 10:53:00,33.0,25.0,30.24,NNW,333,5.0,11.0,72,0.00,,,0.06,,2013-11-03 15:53:00,
2013-11-03 11:14:00,34.0,26.0,30.24,WNW,297,4.0,13.0,72,0.00,,,0.06,,2013-11-03 16:14:00,
2013-11-03 11:23:00,34.0,25.0,30.25,North,360,6.0,12.0,70,0.00,,,0.06,,2013-11-03 16:23:00,
2013-11-03 11:43:00,35.0,26.0,30.25,East,86,2.0,9.0,70,0.00,,,0.06,,2013-11-03 16:43:00,
2013-11-03 11:53:00,35.0,25.0,30.26,NW,319,3.0,11.0,67,0.00,,,0.06,,2013-11-03 16:53:00,
2013-11-03 12:13:00,36.0,24.0,30.26,NNW,342,7.0,17.0,62,0.00,,,0.06,,2013-11-03 17:13:00,
2013-11-03 12:23:00,36.0,24.0,30.26,WNW,301,6.0,15.0,62,0.00,,,0.06,,2013-11-03 17:23:00,
2013-11-03 12:44:00,36.0,24.0,30.26,NNW,342,4.0,11.0,62,0.00,,,0.06,,2013-11-03 17:44:00,
2013-11-03 12:52:00,37.0,24.0,30.25,WNW,301,2.0,13.0,60,0.00,,,0.06,,2013-11-03 17:52:00,
2013-11-03 13:12:00,37.0,23.0,30.25,NNW,334,5.0,11.0,56,0.00,,,0.06,,2013-11-03 18:12:00,
2013-11-03 13:23:00,37.0,23.0,30.26,NW,321,5.0,12.0,56,0.00,,,0.06,,2013-11-03 18:23:00,
2013-11-03 13:42:00,38.0,23.0,30.26,NW,317,3.0,13.0,54,0.00,,,0.05,,2013-11-03 18:42:00,
2013-11-03 13:52:00,38.0,22.0,30.26,NNW,328,5.0,14.0,53,0.00,,,0.05,,2013-11-03 18:52:00,
2013-11-03 14:11:00,38.0,22.0,30.26,NNE,16,10.0,17.0,53,0.00,,,0.05,,2013-11-03 19:11:00,
2013-11-03 14:22:00,38.0,22.0,30.27,North,352,9.0,17.0,51,0.00,,,0.05,,2013-11-03 19:22:00,
2013-11-03 14:42:00,39.0,22.0,30.27,North,351,7.0,12.0,51,0.00,,,0.05,,2013-11-03 19:42:00,
2013-11-03 14:53:00,38.0,21.0,30.27,NNE,15,9.0,17.0,50,0.00,,,0.05,,2013-11-03 19:53:00,
2013-11-03 15:11:00,38.0,21.0,30.27,NNW,336,7.0,15.0,50,0.00,,,0.05,,2013-11-03 20:11:00,
2013-11-03 15:22:00,39.0,22.0,30.28,NNW,330,7.0,12.0,50,0.00,,,0.05,,2013-11-03 20:22:00,
2013-11-03 15:42:00,38.0,22.0,30.29,WNW,302,6.0,18.0,51,0.00,,,0.05,,2013-11-03 20:42:00,
2013-11-03 15:52:00,38.0,22.0,30.29,North,352,8.0,15.0,51,0.00,,,0.05,,2013-11-03 20:52:00,
2013-11-03 16:12:00,38.0,21.0,30.30,NNW,345,7.0,13.0,50,0.00,,,0.05,,2013-11-03 21:12:00,
2013-11-03 16:22:00,37.0,21.0,30.31,NNE,15,6.0,14.0,51,0.00,,,0.05,,2013-11-03 21:22:00,
2013-11-03 16:43:00,37.0,22.0,30.32,NNE,32,1.0,15.0,55,0.00,,,0.05,,2013-11-03 21:43:00,
2013-11-03 16:54:00,36.0,22.0,30.32,NNW,342,7.0,14.0,57,0.00,,,0.05,,2013-11-03 21:54:00,
2013-11-03 17:13:00,35.0,21.0,30.33,NNE,27,10.0,18.0,57,0.00,,,0.05,,2013-11-03 22:13:00,
2013-11-03 17:22:00,34.0,21.0,30.34,NW,318,7.0,18.0,58,0.00,,,0.05,,2013-11-03 22:22:00,
2013-11-03 17:43:00,34.0,22.0,30.35,North,360,10.0,18.0,60,0.00,,,0.04,,2013-11-03 22:43:00,
2013-11-03 17:52:00,33.0,21.0,30.35,NNW,347,10.0,21.0,61,0.00,,,0.04,,2013-11-03 22:52:00,
2013-11-03 18:12:00,32.0,20.0,30.36,NNW,342,7.0,18.0,62,0.00,,,0.04,,2013-11-03 23:12:00,
2013-11-03 18:23:00,31.0,20.0,30.37,NNE,13,9.0,15.0,63,0.00,,,0.04,,2013-11-03 23:23:00,
2013-11-03 18:42:00,31.0,20.0,30.38,NNE,30,5.0,14.0,64,0.00,,,0.04,,2013-11-03 23:42:00,
2013-11-03 18:53:00,30.0,19.0,30.39,NNW,338,5.0,15.0,64,0.00,,,0.04,,2013-11-03 23:53:00,
2013-11-03 19:11:00,30.0,20.0,30.40,NNE,23,4.0,12.0,65,0.00,,,0.04,,2013-11-04 00:11:00,
2013-11-03 19:22:00,30.0,20.0,30.40,North,11,6.0,-999.0,65,-99.99,,,-99.99,,2013-11-04 00:22:00,
2013-11-03 19:42:00,29.0,19.0,30.41,North,359,5.0,12.0,65,0.00,,,0.04,,2013-11-04 00:42:00,
2013-11-03 19:52:00,29.0,19.0,30.42,NNE,13,4.0,8.0,67,0.00,,,0.04,,2013-11-04 00:52:00,
2013-11-03 20:22:00,28.0,19.0,30.43,NNW,345,5.0,9.0,68,0.00,,,0.04,,2013-11-04 01:22:00,
2013-11-03 20:42:00,28.0,19.0,30.44,North,1,5.0,9.0,68,0.00,,,0.03,,2013-11-04 01:42:00,
2013-11-03 20:52:00,28.0,19.0,30.45,NNW,338,3.0,7.0,68,0.00,,,0.03,,2013-11-04 01:52:00,
2013-11-03 21:12:00,28.0,19.0,30.45,North,352,4.0,8.0,69,0.00,,,0.03,,2013-11-04 02:12:00,
2013-11-03 21:22:00,27.0,19.0,30.46,NNW,343,5.0,9.0,70,0.00,,,0.03,,2013-11-04 02:22:00,
2013-11-03 21:42:00,27.0,19.0,30.47,NNE,30,5.0,10.0,71,0.00,,,0.01,,2013-11-04 02:42:00,
2013-11-03 21:52:00,27.0,19.0,30.47,North,6,7.0,10.0,71,0.00,,,0.01,,2013-11-04 02:52:00,
2013-11-03 22:12:00,27.0,19.0,30.48,NNW,342,5.0,10.0,72,0.00,,,0.01,,2013-11-04 03:12:00,
2013-11-03 22:22:00,26.0,18.0,30.49,NE,41,4.0,8.0,72,0.00,,,0.01,,2013-11-04 03:22:00,
2013-11-03 22:44:00,26.0,18.0,30.49,NNE,23,4.0,10.0,72,0.00,,,0.00,,2013-11-04 03:44:00,
2013-11-03 22:54:00,26.0,18.0,30.50,North,354,2.0,6.0,71,0.00,,,0.00,,2013-11-04 03:54:00,
2013-11-03 23:13:00,26.0,18.0,30.50,NNW,347,2.0,6.0,71,0.00,,,0.00,,2013-11-04 04:13:00,
2013-11-03 23:24:00,26.0,18.0,30.50,NW,313,3.0,7.0,71,0.00,,,0.00,,2013-11-04 04:24:00,
2013-11-03 23:43:00,26.0,18.0,30.51,NNW,345,3.0,6.0,72,0.00,,,0.00,,2013-11-04 04:43:00,
2013-11-03 23:52:00,25.0,18.0,30.51,NNE,27,1.0,4.0,73,0.00,,,0.00,,2013-11-04 04:52:00,